| time (UTC) | temp F | wind direction | speed MPH | gust MPH | rain 1hr in | rain 24hr in | rain mn in | humidity % | barometer mb |
| 20260502164057 | 47 | 336 | 8.0 | 15.0 | 0.00 | 0.00 | 0.00 | 58 | 1017.8 |
| 20260502163556 | 48 | 347 | 5.0 | 16.0 | 0.00 | 0.00 | 0.00 | 58 | 1017.8 |
| 20260502163058 | 48 | 313 | 6.0 | 16.0 | 0.00 | 0.00 | 0.00 | 60 | 1017.9 |
| 20260502162557 | 47 | 14 | 8.0 | 13.0 | 0.00 | 0.00 | 0.00 | 59 | 1017.9 |
| 20260502162056 | 46 | 348 | 7.0 | 13.0 | 0.00 | 0.00 | 0.00 | 60 | 1017.9 |
| 20260502161603 | 46 | 33 | 6.0 | 15.0 | 0.00 | 0.00 | 0.00 | 60 | 1018.1 |
| 20260502161057 | 47 | 351 | 7.0 | 15.0 | 0.00 | 0.00 | 0.00 | 59 | 1018.1 |
| 20260502160557 | 47 | 15 | 9.0 | 14.0 | 0.00 | 0.00 | 0.00 | 61 | 1018.0 |
| 20260502152102 | 46 | 343 | 6.0 | 14.0 | 0.00 | 0.01 | 0.00 | 61 | 1018.2 |
| 20260502151607 | 46 | 355 | 6.0 | 14.0 | 0.00 | 0.01 | 0.00 | 63 | 1018.0 |
| 20260502151101 | 46 | 9 | 5.0 | 14.0 | 0.00 | 0.01 | 0.00 | 65 | 1017.9 |
| 20260502150558 | 46 | 15 | 6.0 | 16.0 | 0.00 | 0.01 | 0.00 | 61 | 1018.1 |
| 20260502130557 | 42 | 31 | 6.0 | 12.0 | 0.00 | 0.05 | 0.00 | 72 | 1017.6 |
| 20260502123600 | 39 | 336 | 5.0 | 11.0 | 0.00 | 0.05 | 0.00 | 73 | 1017.4 |
| 20260502123100 | 39 | 328 | 6.0 | 11.0 | 0.00 | 0.05 | 0.00 | 73 | 1017.5 |
| 20260502122600 | 39 | 352 | 5.0 | 9.0 | 0.00 | 0.05 | 0.00 | 74 | 1017.5 |
| 20260502122100 | 38 | 321 | 4.0 | 8.0 | 0.00 | 0.05 | 0.00 | 74 | 1017.5 |
| 20260502121558 | 38 | 333 | 4.0 | 9.0 | 0.00 | 0.05 | 0.00 | 75 | 1017.4 |
| 20260502121057 | 38 | 331 | 4.0 | 9.0 | 0.00 | 0.05 | 0.00 | 76 | 1017.4 |
| 20260502120557 | 37 | 324 | 4.0 | 8.0 | 0.00 | 0.05 | 0.00 | 76 | 1017.4 |
| 20260502115558 | 36 | 333 | 3.0 | 8.0 | 0.00 | 0.05 | 0.00 | 78 | 1017.2 |
| 20260502115057 | 36 | 333 | 2.0 | 6.0 | 0.00 | 0.05 | 0.00 | 79 | 1017.3 |
| 20260502114609 | 35 | 326 | 3.0 | 6.0 | 0.00 | 0.05 | 0.00 | 80 | 1017.2 |
| 20260502114057 | 35 | 325 | 3.0 | 6.0 | 0.00 | 0.05 | 0.00 | 81 | 1017.2 |
| 20260502113557 | 34 | 334 | 3.0 | 6.0 | 0.00 | 0.05 | 0.00 | 82 | 1017.2 |
| 20260502113058 | 33 | 325 | 2.0 | 5.0 | 0.00 | 0.05 | 0.00 | 83 | 1017.2 |
| 20260502112556 | 33 | 323 | 1.0 | 4.0 | 0.00 | 0.05 | 0.00 | 83 | 1017.3 |
| 20260502112056 | 33 | 0 | 0.0 | 3.0 | 0.00 | 0.05 | 0.00 | 83 | 1017.2 |
| 20260502111558 | 33 | 318 | 0.0 | 3.0 | 0.00 | 0.05 | 0.00 | 82 | 1017.1 |
| 20260502111057 | 32 | 320 | 1.0 | 3.0 | 0.00 | 0.05 | 0.00 | 82 | 1017.1 |
| 20260502110557 | 32 | 323 | 1.0 | 3.0 | 0.00 | 0.05 | 0.00 | 82 | 1017.1 |
| 20260502110059 | 32 | 321 | 0.0 | 2.0 | 0.00 | 0.05 | 0.00 | 81 | 1017.0 |
| 20260502105557 | 33 | 0 | 0.0 | 0.0 | 0.00 | 0.05 | 0.00 | 81 | 1017.1 |
| 20260502105058 | 33 | 0 | 0.0 | 2.0 | 0.00 | 0.05 | 0.00 | 81 | 1017.2 |
| 20260502104559 | 33 | 0 | 0.0 | 3.0 | 0.00 | 0.05 | 0.00 | 80 | 1017.0 |
| 20260502104101 | 33 | 321 | 0.0 | 4.0 | 0.00 | 0.05 | 0.00 | 80 | 1017.1 |
| 20260502103557 | 33 | 321 | 1.0 | 4.0 | 0.00 | 0.05 | 0.00 | 80 | 1017.1 |
| 20260502103056 | 33 | 315 | 1.0 | 5.0 | 0.00 | 0.05 | 0.00 | 80 | 1017.1 |
| 20260502102557 | 33 | 313 | 2.0 | 5.0 | 0.00 | 0.05 | 0.00 | 79 | 1017.1 |
| 20260502102057 | 33 | 311 | 1.0 | 4.0 | 0.00 | 0.05 | 0.00 | 79 | 1017.1 |
| 20260502101623 | 33 | 329 | 1.0 | 4.0 | 0.00 | 0.05 | 0.00 | 79 | 1017.1 |
| 20260502101057 | 34 | 0 | 0.0 | 3.0 | 0.00 | 0.05 | 0.00 | 78 | 1017.0 |
| 20260502100556 | 34 | 0 | 0.0 | 4.0 | 0.00 | 0.05 | 0.00 | 78 | 1017.1 |
| 20260502100105 | 34 | 0 | 1.0 | 4.0 | 0.00 | 0.05 | 0.00 | 79 | 1016.8 |
| 20260502091056 | 34 | 332 | 3.0 | 5.0 | 0.00 | 0.05 | 0.00 | 80 | 1016.8 |
| 20260502090559 | 34 | 317 | 1.0 | 4.0 | 0.00 | 0.05 | 0.00 | 80 | 1016.9 |
| 20260502090114 | 34 | 0 | 0.0 | 3.0 | 0.00 | 0.05 | 0.00 | 80 | 1016.8 |
| 20260502080108 | 35 | 0 | 0.0 | 3.0 | 0.00 | 0.05 | 0.00 | 80 | 1016.7 |
| 20260502071057 | 36 | 0 | 0.0 | 2.0 | 0.00 | 0.05 | 0.00 | 79 | 1016.6 |
| 20260502070557 | 36 | 0 | 0.0 | 2.0 | 0.00 | 0.05 | 0.00 | 79 | 1016.7 |
| 20260502070125 | 36 | 323 | 0.0 | 4.0 | 0.00 | 0.05 | 0.00 | 79 | 1016.7 |
| 20260502065557 | 36 | 323 | 1.0 | 5.0 | 0.00 | 0.05 | 0.00 | 79 | 1016.6 |
| 20260502065057 | 36 | 0 | 1.0 | 5.0 | 0.00 | 0.05 | 0.00 | 79 | 1016.8 |
| 20260502064600 | 36 | 323 | 1.0 | 4.0 | 0.00 | 0.05 | 0.00 | 80 | 1016.9 |
| 20260502064057 | 36 | 306 | 1.0 | 5.0 | 0.00 | 0.05 | 0.00 | 80 | 1016.9 |
| 20260502063601 | 36 | 327 | 2.0 | 5.0 | 0.00 | 0.05 | 0.00 | 80 | 1017.0 |
| 20260502063109 | 36 | 316 | 2.0 | 4.0 | 0.00 | 0.05 | 0.00 | 80 | 1017.0 |
| 20260502062603 | 36 | 319 | 1.0 | 3.0 | 0.00 | 0.05 | 0.00 | 80 | 1017.1 |
| 20260502062056 | 36 | 296 | 0.0 | 3.0 | 0.00 | 0.05 | 0.00 | 80 | 1017.0 |
| 20260502061609 | 36 | 0 | 0.0 | 3.0 | 0.00 | 0.05 | 0.00 | 80 | 1017.1 |
| 20260502061100 | 36 | 296 | 0.0 | 2.0 | 0.00 | 0.05 | 0.00 | 80 | 1017.1 |
| 20260502060601 | 36 | 0 | 0.0 | 2.0 | 0.00 | 0.05 | 0.00 | 79 | 1017.1 |
| 20260502060104 | 37 | 0 | 0.0 | 3.0 | 0.00 | 0.05 | 0.00 | 80 | 1017.1 |
| 20260502055559 | 37 | 0 | 0.0 | 3.0 | 0.00 | 0.05 | 0.00 | 80 | 1017.1 |
| 20260502055102 | 37 | 0 | 1.0 | 3.0 | 0.00 | 0.05 | 0.00 | 80 | 1017.1 |
| 20260502054559 | 37 | 300 | 0.0 | 3.0 | 0.00 | 0.05 | 0.00 | 80 | 1017.0 |
| 20260502054059 | 37 | 0 | 0.0 | 3.0 | 0.00 | 0.05 | 0.00 | 81 | 1017.1 |
| 20260502053559 | 37 | 290 | 0.0 | 3.0 | 0.00 | 0.05 | 0.00 | 81 | 1017.2 |
| 20260502053100 | 37 | 0 | 1.0 | 3.0 | 0.00 | 0.05 | 0.00 | 81 | 1017.3 |
| 20260502052559 | 37 | 286 | 0.0 | 3.0 | 0.00 | 0.05 | 0.00 | 81 | 1017.3 |
| 20260502052101 | 37 | 0 | 0.0 | 4.0 | 0.00 | 0.05 | 0.00 | 81 | 1017.3 |
| 20260502051627 | 37 | 0 | 1.0 | 4.0 | 0.00 | 0.05 | 0.00 | 82 | 1017.3 |
| 20260502051058 | 37 | 285 | 0.0 | 3.0 | 0.00 | 0.05 | 0.00 | 82 | 1017.3 |
| 20260502050558 | 38 | 285 | 1.0 | 3.0 | 0.00 | 0.05 | 0.00 | 82 | 1017.1 |
| 20260502050058 | 38 | 285 | 1.0 | 4.0 | 0.00 | 0.05 | 0.00 | 82 | 1017.2 |
| 20260502045600 | 38 | 0 | 0.0 | 4.0 | 0.00 | 0.05 | 0.00 | 83 | 1017.3 |
| 20260502045059 | 38 | 281 | 1.0 | 4.0 | 0.00 | 0.05 | 0.00 | 83 | 1017.3 |
| 20260502044558 | 38 | 0 | 1.0 | 3.0 | 0.00 | 0.05 | 0.00 | 83 | 1017.3 |
| 20260502044059 | 38 | 286 | 0.0 | 3.0 | 0.00 | 0.05 | 0.00 | 83 | 1017.2 |
| 20260502043559 | 38 | 287 | 0.0 | 3.0 | 0.00 | 0.05 | 0.00 | 83 | 1017.2 |
| 20260502043105 | 38 | 0 | 0.0 | 3.0 | 0.00 | 0.05 | 0.00 | 83 | 1017.2 |
| 20260502042558 | 38 | 0 | 0.0 | 1.0 | 0.00 | 0.05 | 0.00 | 82 | 1017.3 |
| 20260502042059 | 38 | 0 | 0.0 | 3.0 | 0.00 | 0.05 | 0.00 | 82 | 1017.2 |
| 20260502041558 | 38 | 0 | 0.0 | 3.0 | 0.00 | 0.05 | 0.00 | 81 | 1017.3 |
| 20260502041100 | 39 | 0 | 0.0 | 3.0 | 0.00 | 0.05 | 0.00 | 81 | 1017.3 |
| 20260502040559 | 39 | 0 | 0.0 | 3.0 | 0.00 | 0.05 | 0.00 | 81 | 1017.1 |
| 20260502035559 | 39 | 0 | 0.0 | 3.0 | 0.00 | 0.05 | 0.05 | 81 | 1017.3 |
| 20260502035100 | 39 | 291 | 0.0 | 4.0 | 0.00 | 0.05 | 0.05 | 80 | 1017.2 |
| 20260502034559 | 39 | 292 | 0.0 | 4.0 | 0.00 | 0.05 | 0.05 | 80 | 1017.1 |
| 20260502034059 | 39 | 0 | 1.0 | 4.0 | 0.00 | 0.05 | 0.05 | 80 | 1017.2 |
| 20260502033558 | 40 | 288 | 0.0 | 3.0 | 0.00 | 0.05 | 0.05 | 79 | 1017.3 |
| 20260502033101 | 40 | 287 | 0.0 | 4.0 | 0.00 | 0.05 | 0.05 | 79 | 1017.1 |
| 20260502032559 | 40 | 285 | 0.0 | 5.0 | 0.00 | 0.05 | 0.05 | 79 | 1017.0 |
| 20260502032059 | 40 | 0 | 1.0 | 5.0 | 0.00 | 0.05 | 0.05 | 79 | 1017.1 |
| 20260502031601 | 40 | 279 | 0.0 | 3.0 | 0.00 | 0.05 | 0.05 | 78 | 1017.2 |
| 20260502031059 | 40 | 0 | 0.0 | 3.0 | 0.00 | 0.05 | 0.05 | 78 | 1017.1 |
| 20260502030558 | 40 | 0 | 0.0 | 4.0 | 0.00 | 0.05 | 0.05 | 78 | 1017.2 |
| 20260502030104 | 40 | 272 | 1.0 | 4.0 | 0.00 | 0.05 | 0.05 | 78 | 1017.3 |
| 20260502025559 | 40 | 273 | 1.0 | 3.0 | 0.00 | 0.05 | 0.05 | 77 | 1017.3 |
| 20260502025059 | 41 | 287 | 0.0 | 3.0 | 0.00 | 0.05 | 0.05 | 77 | 1017.3 |
| 20260502024559 | 41 | 289 | 0.0 | 4.0 | 0.00 | 0.05 | 0.05 | 77 | 1017.2 |
| 20260502024104 | 41 | 289 | 1.0 | 4.0 | 0.00 | 0.05 | 0.05 | 77 | 1017.2 |
| 20260502023601 | 41 | 289 | 0.0 | 3.0 | 0.00 | 0.05 | 0.05 | 77 | 1017.1 |
| 20260502023124 | 41 | 0 | 0.0 | 3.0 | 0.00 | 0.05 | 0.05 | 77 | 1017.2 |
| 20260502022559 | 42 | 0 | 1.0 | 3.0 | 0.00 | 0.05 | 0.05 | 76 | 1017.0 |
| 20260502022059 | 42 | 311 | 0.0 | 3.0 | 0.00 | 0.05 | 0.05 | 76 | 1017.0 |
| 20260502021559 | 42 | 312 | 0.0 | 3.0 | 0.00 | 0.05 | 0.05 | 76 | 1016.9 |
| 20260502021101 | 42 | 0 | 0.0 | 3.0 | 0.00 | 0.05 | 0.05 | 75 | 1016.8 |
| 20260502020600 | 43 | 314 | 1.0 | 3.0 | 0.00 | 0.05 | 0.05 | 75 | 1016.7 |
| 20260502020107 | 43 | 317 | 1.0 | 4.0 | 0.00 | 0.05 | 0.05 | 75 | 1016.8 |
| 20260502015557 | 43 | 316 | 1.0 | 6.0 | 0.00 | 0.05 | 0.05 | 74 | 1016.6 |
| 20260502015057 | 43 | 0 | 2.0 | 6.0 | 0.00 | 0.05 | 0.05 | 74 | 1016.6 |
| 20260502014557 | 43 | 319 | 3.0 | 6.0 | 0.00 | 0.05 | 0.05 | 74 | 1016.5 |
| 20260502014057 | 44 | 328 | 2.0 | 4.0 | 0.00 | 0.05 | 0.05 | 74 | 1016.3 |
| 20260502013557 | 44 | 325 | 2.0 | 4.0 | 0.00 | 0.05 | 0.05 | 74 | 1016.4 |
| 20260502013113 | 44 | 333 | 1.0 | 4.0 | 0.00 | 0.05 | 0.05 | 73 | 1016.5 |
| 20260502012557 | 44 | 338 | 2.0 | 6.0 | 0.00 | 0.05 | 0.05 | 72 | 1016.2 |
| 20260502012057 | 45 | 331 | 3.0 | 7.0 | 0.00 | 0.05 | 0.05 | 71 | 1016.2 |
| 20260502011608 | 45 | 319 | 3.0 | 7.0 | 0.00 | 0.05 | 0.05 | 71 | 1016.1 |
| 20260502011059 | 45 | 161 | 4.0 | 8.0 | 0.00 | 0.05 | 0.05 | 71 | 1016.1 |
| 20260502010556 | 45 | 157 | 3.0 | 10.0 | 0.00 | 0.05 | 0.05 | 71 | 1015.8 |
| 20260502010100 | 46 | 172 | 5.0 | 10.0 | 0.00 | 0.05 | 0.05 | 70 | 1015.8 |
| 20260502005601 | 46 | 163 | 4.0 | 8.0 | 0.00 | 0.05 | 0.05 | 70 | 1015.7 |
| 20260502005100 | 46 | 159 | 4.0 | 7.0 | 0.00 | 0.05 | 0.05 | 71 | 1015.6 |
| 20260502004624 | 46 | 165 | 3.0 | 7.0 | 0.00 | 0.05 | 0.05 | 70 | 1015.5 |
| 20260502004057 | 46 | 165 | 4.0 | 7.0 | 0.00 | 0.05 | 0.05 | 70 | 1015.6 |
| 20260502003557 | 46 | 169 | 3.0 | 8.0 | 0.00 | 0.05 | 0.05 | 70 | 1015.4 |
| 20260502003101 | 46 | 167 | 3.0 | 8.0 | 0.00 | 0.05 | 0.05 | 69 | 1015.5 |
| 20260502002558 | 46 | 171 | 4.0 | 7.0 | 0.00 | 0.05 | 0.05 | 69 | 1015.5 |
| 20260502002057 | 46 | 167 | 3.0 | 8.0 | 0.00 | 0.05 | 0.05 | 69 | 1015.6 |
| 20260502001611 | 46 | 175 | 3.0 | 9.0 | 0.00 | 0.05 | 0.05 | 70 | 1015.6 |
| 20260502001059 | 46 | 172 | 4.0 | 9.0 | 0.00 | 0.05 | 0.05 | 69 | 1015.7 |
| 20260502000558 | 47 | 173 | 3.0 | 8.0 | 0.00 | 0.05 | 0.05 | 68 | 1015.7 |
| 20260502000104 | 47 | 171 | 3.0 | 8.0 | 0.00 | 0.05 | 0.05 | 68 | 1015.6 |
| 20260501235558 | 47 | 172 | 4.0 | 11.0 | 0.00 | 0.05 | 0.05 | 67 | 1015.5 |
| 20260501235057 | 48 | 187 | 5.0 | 12.0 | 0.00 | 0.05 | 0.05 | 67 | 1015.4 |
| 20260501234608 | 48 | 173 | 5.0 | 13.0 | 0.00 | 0.05 | 0.05 | 66 | 1015.2 |
| 20260501234100 | 48 | 186 | 6.0 | 13.0 | 0.00 | 0.05 | 0.05 | 65 | 1015.2 |
| 20260501233600 | 48 | 188 | 5.0 | 10.0 | 0.00 | 0.05 | 0.05 | 66 | 1015.1 |
| 20260501233104 | 48 | 188 | 5.0 | 12.0 | 0.00 | 0.05 | 0.05 | 65 | 1015.1 |
| 20260501232603 | 48 | 185 | 4.0 | 12.0 | 0.00 | 0.05 | 0.05 | 66 | 1015.0 |
| 20260501232100 | 48 | 161 | 6.0 | 12.0 | 0.00 | 0.05 | 0.05 | 66 | 1015.0 |
| 20260501231558 | 48 | 190 | 5.0 | 10.0 | 0.00 | 0.05 | 0.05 | 66 | 1014.9 |
| 20260501231056 | 49 | 187 | 5.0 | 11.0 | 0.00 | 0.05 | 0.05 | 66 | 1014.8 |
| 20260501230557 | 49 | 190 | 5.0 | 11.0 | 0.00 | 0.05 | 0.05 | 66 | 1014.9 |
| 20260501230057 | 49 | 9 | 5.0 | 12.0 | 0.00 | 0.05 | 0.05 | 66 | 1015.0 |
| 20260501225557 | 49 | 200 | 6.0 | 12.0 | 0.00 | 0.05 | 0.05 | 66 | 1014.9 |
| 20260501225057 | 49 | 184 | 4.0 | 10.0 | 0.00 | 0.05 | 0.05 | 66 | 1014.7 |
| 20260501224558 | 50 | 338 | 5.0 | 13.0 | 0.00 | 0.05 | 0.05 | 66 | 1014.8 |
| 20260501224058 | 50 | 328 | 6.0 | 13.0 | 0.00 | 0.05 | 0.05 | 65 | 1014.8 |
| 20260501223558 | 50 | 298 | 5.0 | 12.0 | 0.00 | 0.05 | 0.05 | 65 | 1014.7 |
| 20260501223056 | 50 | 311 | 5.0 | 12.0 | 0.00 | 0.05 | 0.05 | 65 | 1014.7 |
| 20260501222557 | 50 | 326 | 5.0 | 13.0 | 0.00 | 0.05 | 0.05 | 66 | 1014.6 |
| 20260501222058 | 50 | 329 | 7.0 | 13.0 | 0.00 | 0.05 | 0.05 | 64 | 1014.5 |
| 20260501221558 | 50 | 319 | 6.0 | 14.0 | 0.00 | 0.05 | 0.05 | 63 | 1014.7 |
| 20260501221056 | 50 | 346 | 7.0 | 14.0 | 0.00 | 0.05 | 0.05 | 65 | 1014.6 |
| 20260501220557 | 51 | 321 | 4.0 | 12.0 | 0.00 | 0.05 | 0.05 | 63 | 1014.7 |
| 20260501220138 | 51 | 333 | 5.0 | 12.0 | 0.00 | 0.05 | 0.05 | 62 | 1014.9 |
| 20260501215600 | 51 | 331 | 4.0 | 12.0 | 0.00 | 0.05 | 0.05 | 60 | 1014.8 |
| 20260501215058 | 51 | 297 | 5.0 | 13.0 | 0.00 | 0.05 | 0.05 | 61 | 1014.8 |
| 20260501214600 | 51 | 323 | 7.0 | 13.0 | 0.00 | 0.05 | 0.05 | 62 | 1015.0 |
| 20260501214057 | 51 | 323 | 6.0 | 13.0 | 0.00 | 0.05 | 0.05 | 63 | 1014.7 |
| 20260501213557 | 50 | 296 | 5.0 | 12.0 | 0.00 | 0.05 | 0.05 | 67 | 1014.8 |
| 20260501213104 | 49 | 307 | 5.0 | 12.0 | 0.00 | 0.05 | 0.05 | 69 | 1014.8 |
| 20260501212557 | 49 | 346 | 6.0 | 15.0 | 0.00 | 0.05 | 0.05 | 68 | 1014.7 |
| 20260501212059 | 49 | 285 | 8.0 | 15.0 | 0.00 | 0.05 | 0.05 | 69 | 1014.9 |
| 20260501211601 | 49 | 343 | 5.0 | 14.0 | 0.00 | 0.05 | 0.05 | 70 | 1014.7 |
| 20260501211056 | 49 | 345 | 6.0 | 11.0 | 0.00 | 0.05 | 0.05 | 73 | 1014.6 |
| 20260501210556 | 48 | 346 | 7.0 | 14.0 | 0.00 | 0.05 | 0.05 | 72 | 1014.7 |
| 20260501210119 | 48 | 186 | 6.0 | 15.0 | 0.00 | 0.05 | 0.05 | 72 | 1014.6 |
| 20260501205557 | 48 | 186 | 7.0 | 15.0 | 0.00 | 0.05 | 0.05 | 72 | 1014.7 |
| 20260501205057 | 48 | 192 | 8.0 | 15.0 | 0.00 | 0.05 | 0.05 | 72 | 1014.5 |
| 20260501204600 | 48 | 184 | 7.0 | 15.0 | 0.00 | 0.05 | 0.05 | 74 | 1014.4 |
| 20260501204057 | 48 | 12 | 8.0 | 14.0 | 0.00 | 0.05 | 0.05 | 73 | 1014.4 |
| 20260501203557 | 48 | 195 | 7.0 | 13.0 | 0.00 | 0.05 | 0.05 | 73 | 1014.4 |
| 20260501203102 | 48 | 11 | 6.0 | 15.0 | 0.00 | 0.05 | 0.05 | 76 | 1014.4 |
| 20260501202557 | 48 | 178 | 7.0 | 15.0 | 0.00 | 0.05 | 0.05 | 75 | 1014.4 |
| 20260501202057 | 48 | 360 | 8.0 | 15.0 | 0.00 | 0.05 | 0.05 | 74 | 1014.5 |
| 20260501201605 | 49 | 338 | 8.0 | 14.0 | 0.00 | 0.05 | 0.05 | 73 | 1014.5 |
| 20260501201101 | 49 | 342 | 7.0 | 14.0 | 0.00 | 0.05 | 0.05 | 74 | 1014.5 |
| 20260501200601 | 49 | 327 | 7.0 | 14.0 | 0.00 | 0.05 | 0.05 | 78 | 1014.5 |
| 20260501200059 | 48 | 338 | 7.0 | 14.0 | 0.00 | 0.05 | 0.05 | 78 | 1014.6 |
| 20260501195557 | 47 | 335 | 8.0 | 14.0 | 0.00 | 0.05 | 0.05 | 78 | 1014.5 |
| 20260501195057 | 47 | 318 | 7.0 | 14.0 | 0.00 | 0.05 | 0.05 | 79 | 1014.5 |
| 20260501194559 | 47 | 28 | 6.0 | 14.0 | 0.00 | 0.05 | 0.05 | 80 | 1014.5 |
| 20260501194056 | 46 | 313 | 8.0 | 14.0 | 0.00 | 0.05 | 0.05 | 79 | 1014.6 |
| 20260501193556 | 47 | 319 | 6.0 | 15.0 | 0.00 | 0.05 | 0.05 | 79 | 1014.6 |
| 20260501193100 | 47 | 270 | 7.0 | 15.0 | 0.00 | 0.05 | 0.05 | 77 | 1014.5 |
| 20260501192556 | 47 | 313 | 9.0 | 17.0 | 0.00 | 0.05 | 0.05 | 78 | 1014.4 |
| 20260501192057 | 47 | 330 | 6.0 | 17.0 | 0.00 | 0.05 | 0.05 | 78 | 1014.4 |
| 20260501191605 | 47 | 321 | 7.0 | 16.0 | 0.00 | 0.05 | 0.05 | 78 | 1014.3 |
| 20260501191058 | 47 | 338 | 7.0 | 16.0 | 0.00 | 0.05 | 0.05 | 79 | 1014.3 |
| 20260501190558 | 47 | 316 | 7.0 | 15.0 | 0.00 | 0.05 | 0.05 | 80 | 1014.2 |
| 20260501190108 | 46 | 155 | 7.0 | 15.0 | 0.00 | 0.05 | 0.05 | 81 | 1014.1 |
| 20260501185557 | 46 | 193 | 7.0 | 17.0 | 0.00 | 0.05 | 0.05 | 80 | 1014.0 |
| 20260501185057 | 46 | 182 | 10.0 | 17.0 | 0.00 | 0.05 | 0.05 | 80 | 1014.1 |
| 20260501184559 | 46 | 188 | 10.0 | 16.0 | 0.00 | 0.05 | 0.05 | 80 | 1014.0 |
| 20260501184101 | 47 | 172 | 10.0 | 17.0 | 0.00 | 0.05 | 0.05 | 79 | 1013.9 |
| 20260501183557 | 47 | 182 | 10.0 | 17.0 | 0.00 | 0.05 | 0.05 | 79 | 1013.7 |
| 20260501183105 | 48 | 164 | 9.0 | 17.0 | 0.00 | 0.05 | 0.05 | 78 | 1013.6 |
| 20260501182556 | 48 | 175 | 10.0 | 17.0 | 0.00 | 0.05 | 0.05 | 77 | 1013.6 |
| 20260501182056 | 49 | 306 | 9.0 | 16.0 | 0.00 | 0.05 | 0.05 | 76 | 1013.5 |
| 20260501181610 | 50 | 355 | 8.0 | 19.0 | 0.00 | 0.05 | 0.05 | 76 | 1013.4 |
| 20260501181057 | 51 | 304 | 8.0 | 21.0 | 0.00 | 0.05 | 0.05 | 75 | 1013.1 |
| 20260501180557 | 52 | 333 | 11.0 | 21.0 | 0.00 | 0.05 | 0.05 | 75 | 1012.9 |
| 20260501180058 | 52 | 284 | 9.0 | 19.0 | 0.00 | 0.05 | 0.05 | 78 | 1012.9 |
| 20260501175558 | 52 | 333 | 11.0 | 19.0 | 0.00 | 0.05 | 0.05 | 77 | 1012.7 |
| 20260501175058 | 52 | 328 | 9.0 | 16.0 | 0.00 | 0.05 | 0.05 | 76 | 1012.6 |
| 20260501174558 | 52 | 321 | 8.0 | 17.0 | 0.00 | 0.05 | 0.05 | 79 | 1012.4 |
| 20260501174057 | 51 | 334 | 9.0 | 17.0 | 0.00 | 0.05 | 0.05 | 75 | 1012.3 |
| 20260501173601 | 51 | 271 | 9.0 | 17.0 | 0.00 | 0.05 | 0.05 | 76 | 1012.3 |
| 20260501173108 | 51 | 288 | 10.0 | 20.0 | 0.00 | 0.05 | 0.05 | 75 | 1012.3 |
| 20260501172558 | 52 | 284 | 9.0 | 20.0 | 0.00 | 0.05 | 0.05 | 76 | 1012.3 |
| 20260501172102 | 52 | 260 | 6.0 | 14.0 | 0.00 | 0.05 | 0.05 | 78 | 1012.2 |